Theta_e
313 314 312 308 305 305 306 305 305 305 305 305 306 306 306 306 306 307 307 308 309 310 311 311 311 314 321 329 333 335 336 334 331 344 346 352 355 353 357 349 350 351 350 348 350 351 352
312 309 307 306 306 306 306 306 307 307 306 306 306 306 307 307 307 307 307 308 309 311 311 311 311 314 324 328 338 340 344 335 342 345 349 351 356 352 357 357 358 355 355 355 352 350 349
306 306 305 305 305 306 306 306 307 307 307 307 308 308 307 307 307 307 308 309 309 310 311 311 312 317 323 321 340 342 345 343 347 347 350 351 354 354 356 359 357 358 360 352 352 354 350
305 305 305 305 305 305 306 306 307 307 307 308 308 309 309 308 308 308 309 309 310 311 312 311 314 319 320 327 330 339 343 343 348 348 349 347 352 352 355 349 349 350 353 355 348 348 348
305 305 305 305 305 306 306 307 307 307 308 308 309 309 310 309 309 308 309 310 311 313 312 313 322 322 327 329 329 336 342 340 341 341 342 343 347 349 345 350 351 350 352 351 351 347 349
304 305 305 305 306 306 307 307 307 308 308 309 309 309 310 310 310 309 310 310 313 316 316 320 321 321 322 331 329 331 336 340 334 334 335 338 339 340 349 349 352 352 352 350 351 348 348
305 305 305 306 306 307 307 308 308 308 308 309 309 309 310 310 311 311 310 313 316 318 323 318 321 321 324 327 328 328 332 336 335 337 339 336 344 348 343 346 346 348 352 354 352 348 348
305 306 306 306 307 307 308 308 308 309 309 309 309 310 310 311 311 311 311 310 317 318 318 317 319 320 322 324 324 324 330 336 337 340 337 337 344 343 341 342 346 351 354 351 344 339 341
306 306 307 307 308 308 308 309 309 309 309 309 309 310 310 311 312 315 314 319 317 317 318 319 319 320 321 322 323 324 331 335 338 339 338 340 341 339 339 340 340 348 347 344 342 338 336
307 307 307 308 308 309 309 309 309 309 309 309 309 310 310 311 315 313 313 317 318 318 319 321 321 321 323 323 326 325 331 334 335 337 336 336 336 338 336 336 338 343 342 342 339 336 339
306 307 307 308 308 309 309 309 309 309 309 309 309 310 310 310 313 312 315 317 319 319 327 325 319 322 321 325 327 327 330 333 335 336 335 337 336 336 335 335 336 335 337 337 337 334 333
305 306 307 308 308 309 309 309 309 309 309 309 309 309 311 313 314 314 315 319 320 320 326 327 320 322 324 324 327 325 328 331 332 335 332 333 332 334 333 334 333 333 334 330 327 329 334
305 306 306 307 308 309 309 309 309 309 308 308 309 310 312 313 313 318 315 316 318 322 324 325 321 322 323 324 325 326 326 328 329 334 333 332 333 331 333 334 331 330 329 334 336 333 334
306 306 306 307 308 309 309 309 309 308 308 308 310 311 315 316 315 314 317 317 325 322 326 324 323 318 323 320 323 323 324 323 322 329 328 331 331 331 331 332 333 331 329 332 338 335 334
308 307 307 308 308 309 309 309 309 308 308 308 309 312 317 317 318 315 314 320 318 321 324 320 320 320 321 320 319 321 320 320 320 325 330 327 329 328 330 329 330 330 332 328 329 326 326
309 308 308 308 308 309 309 309 309 307 308 308 310 317 320 320 319 315 314 317 319 321 318 318 321 323 325 325 323 318 318 320 321 322 325 328 329 327 328 329 327 328 326 330 324 333 332
310 309 309 308 308 309 309 309 309 307 307 308 315 317 319 317 316 308 311 312 317 316 318 318 318 319 323 324 324 319 318 321 321 321 322 322 326 329 324 326 325 322 324 323 322 322 327
308 309 309 309 309 309 309 309 309 307 307 309 308 320 319 314 309 304 309 313 314 316 313 315 316 316 321 322 322 322 324 325 324 326 323 318 319 325 327 323 323 323 326 320 325 328 320
308 308 308 309 310 309 308 308 308 307 308 308 307 311 319 315 316 313 312 315 315 316 314 316 317 321 320 321 322 323 324 323 322 324 327 323 322 325 325 323 325 328 328 322 319 320 325
308 308 308 309 310 309 309 310 308 307 309 310 312 324 317 310 310 316 319 319 319 317 315 315 315 316 318 319 319 320 322 324 324 328 335 325 319 323 325 325 325 328 328 327 325 327 327
309 307 307 308 309 310 310 310 309 307 309 313 314 320 316 320 319 322 321 320 321 322 317 316 317 316 317 318 319 320 327 328 326 328 325 319 323 322 322 322 325 327 328 330 329 328 333
309 309 308 308 309 309 309 309 309 307 307 314 316 317 314 315 317 321 318 321 320 321 317 318 318 321 316 317 318 328 329 329 330 326 326 320 325 326 327 330 330 333 332 335 335 334 334
308 308 308 309 309 309 309 309 308 308 307 307 309 313 314 314 318 322 321 322 322 320 321 319 325 326 326 328 325 325 324 323 324 324 324 324 322 323 326 326 327 330 331 339 346 344 342
308 308 308 308 309 309 309 309 309 308 307 306 308 309 313 315 318 321 320 321 321 320 321 324 323 326 327 323 322 320 320 321 322 322 319 320 320 321 323 323 329 326 340 341 343 344 342
308 307 307 308 308 308 308 309 309 309 308 307 307 309 310 313 315 316 318 318 315 316 319 320 322 320 315 320 321 321 321 322 324 325 323 316 318 322 324 323 324 330 338 336 341 340 343
308 307 307 307 308 308 308 309 310 309 308 306 308 310 309 312 311 316 317 316 315 315 316 318 318 315 317 317 321 324 325 325 325 324 321 316 316 321 321 324 327 325 334 335 334 342 338
308 308 308 308 308 308 309 309 310 309 308 306 307 310 311 313 311 315 315 315 315 315 315 315 316 318 318 318 320 321 322 322 325 326 324 326 327 323 323 328 338 335 334 334 337 335 336
308 307 307 307 309 309 309 309 310 308 306 307 307 309 311 311 312 314 314 317 315 313 315 314 316 316 320 320 316 317 319 319 324 324 329 328 332 336 330 334 343 330 331 335 333 332 335
308 307 307 307 307 307 310 311 308 306 307 307 307 309 307 308 311 315 316 316 316 316 314 312 315 314 319 322 322 323 328 319 321 326 322 325 327 334 335 335 328 327 328 329 328 325 326
Wind_Speed
16 16 17 19 20 19 19 19 19 19 18 17 17 18 18 18 17 17 16 16 14 13 14 13 13 13 5 3 7 6 11 10 11 10 4 2 3 2 1 2 0 1 4 5 10 11 10
17 18 19 21 21 22 21 21 22 20 19 19 19 19 18 18 18 18 17 16 15 14 13 11 9 9 3 4 3 12 12 14 12 11 5 5 3 3 2 3 4 4 5 9 8 10 6
19 20 20 20 21 22 21 21 22 23 23 21 21 20 20 20 20 20 18 16 15 14 13 9 6 4 1 10 3 15 15 15 14 11 3 9 7 2 3 4 4 4 6 11 12 4 5
20 19 20 20 21 22 22 22 23 24 24 23 23 23 22 22 21 20 19 16 15 14 9 5 3 1 6 2 6 18 17 8 12 15 15 10 8 2 2 5 5 5 3 5 8 8 5
19 19 19 20 21 23 23 24 25 26 25 24 25 25 25 23 21 21 18 17 15 7 3 2 0 1 8 5 7 21 20 8 18 16 15 4 4 3 2 2 5 3 2 6 7 6 4
19 19 20 20 21 23 24 25 26 26 26 25 26 26 25 24 23 21 18 17 3 2 2 1 1 3 5 3 4 8 24 20 3 1 4 4 2 2 3 4 4 3 5 5 6 3 10
19 20 21 21 22 23 25 26 27 27 27 26 27 27 26 26 24 21 18 2 3 2 3 7 5 4 5 7 6 7 15 9 2 1 3 2 4 6 9 9 12 5 3 9 16 8 5
20 21 21 22 23 24 25 27 28 29 29 28 28 28 26 26 25 17 8 2 3 2 7 10 9 7 11 4 5 5 11 6 6 6 1 4 5 10 10 8 9 7 6 8 9 6 3
20 21 22 23 24 25 27 28 30 30 31 30 29 29 27 27 19 2 6 3 14 8 2 7 6 6 5 10 8 7 11 6 4 4 4 5 9 10 8 10 12 5 5 5 3 5 6
20 21 22 24 25 26 27 29 31 32 32 30 30 29 28 27 2 11 6 12 18 6 4 6 4 8 6 6 5 9 12 6 2 8 5 6 3 3 4 6 3 6 3 6 2 4 2
20 21 23 24 26 27 28 30 32 34 33 32 31 30 27 22 14 4 6 18 6 4 1 2 4 2 4 9 2 4 5 4 8 6 4 8 4 6 7 5 4 9 2 5 2 3 1
20 21 23 24 26 28 29 31 34 34 35 34 32 30 26 10 8 9 11 13 2 5 5 2 5 6 6 2 1 1 4 4 3 3 1 8 2 3 7 5 5 9 2 4 5 3 4
20 21 22 24 26 29 30 32 35 36 37 36 32 27 22 13 4 4 15 3 5 3 5 1 5 4 3 6 3 2 4 2 6 2 5 8 11 4 4 6 3 5 6 4 5 5 5
19 21 22 24 26 29 31 33 36 38 39 42 32 24 14 16 5 5 1 5 3 4 6 4 2 3 6 3 4 4 4 6 4 4 3 6 9 3 5 7 5 2 7 5 6 4 6
21 21 22 24 26 29 32 34 36 39 40 42 30 12 8 5 13 8 5 3 7 6 3 7 3 5 1 4 5 5 6 5 7 9 10 6 7 4 4 3 6 3 4 5 5 2 3
22 23 23 24 26 29 32 34 35 40 40 33 22 10 6 4 14 8 4 5 4 4 4 4 2 1 4 2 5 5 7 4 8 13 4 5 5 6 4 3 3 7 4 2 2 3 5
21 23 23 24 26 28 31 34 35 39 42 26 6 4 5 13 9 5 4 7 5 6 3 5 2 2 5 4 4 5 4 4 2 2 10 7 7 16 2 3 7 2 3 3 4 5 4
21 22 23 24 25 28 31 33 32 37 43 20 7 2 2 17 4 1 3 5 3 3 2 4 3 8 6 7 6 5 5 4 5 2 6 7 5 6 13 6 3 4 5 5 5 5 2
23 22 23 23 24 27 30 33 32 33 31 10 2 3 2 5 2 2 4 4 3 4 5 4 4 5 1 6 4 3 1 3 6 4 0 6 0 2 8 6 4 2 2 4 5 3 3
23 23 22 23 24 26 28 31 31 32 28 3 2 2 4 3 0 4 3 7 5 3 7 6 7 6 4 5 2 6 3 1 5 5 7 7 3 6 6 7 4 3 2 2 6 4 3
22 23 21 22 23 24 27 29 32 31 20 2 2 1 2 2 2 2 2 4 6 4 4 2 4 7 9 7 5 4 1 2 4 8 4 4 2 2 5 6 2 4 6 3 5 4 5
21 23 24 23 23 23 25 27 30 31 18 4 2 3 4 2 4 3 4 1 5 3 5 7 6 8 6 6 8 7 5 2 2 5 3 3 3 1 3 0 4 4 4 6 6 3 5
21 22 23 23 23 23 23 25 26 29 21 7 6 3 3 3 4 1 2 3 6 8 7 10 6 5 5 6 6 6 4 4 6 7 2 1 4 3 4 4 4 4 2 8 6 5 1
20 21 22 22 23 23 23 23 22 22 21 8 3 3 2 3 1 3 4 5 8 6 4 6 5 3 1 5 3 4 4 1 5 6 6 7 5 4 4 3 3 5 7 16 16 7 7
21 21 21 22 22 22 22 21 20 19 19 13 4 0 2 3 3 6 4 5 9 6 5 3 4 3 5 5 4 5 5 6 5 2 4 5 5 3 5 5 1 4 5 3 4 2 3
21 22 21 21 21 21 21 20 19 19 19 17 2 2 1 2 4 1 3 3 3 4 7 5 5 6 5 4 4 4 4 4 4 8 5 4 2 5 3 6 9 4 2 6 6 2 3
22 22 22 21 21 21 20 19 19 18 18 17 4 2 2 2 4 2 4 3 2 1 2 4 8 8 3 2 3 3 4 3 3 3 5 5 3 4 3 3 2 3 7 5 5 6 4
21 21 21 20 21 21 20 19 19 17 17 16 5 4 3 2 6 6 4 3 3 1 1 4 4 4 4 4 2 3 3 4 1 3 2 3 2 1 2 4 1 5 3 6 5 2 3
20 21 21 21 22 21 20 20 18 16 15 13 4 3 10 5 6 9 21 26 20 15 2 2 3 2 3 3 0 2 2 1 3 3 2 2 4 4 2 5 5 4 6 1 4 3 2
Wind_Direction
17 17 18 24 24 20 16 13 9 2 358 353 347 340 336 335 335 335 335 332 326 321 322 325 327 333 337 309 252 187 174 164 164 175 197 106 25 109 160 171 189 165 269 250 257 278 282
24 29 32 32 27 22 20 16 9 3 359 354 350 347 341 336 334 332 330 329 321 317 316 316 321 332 349 297 271 184 175 154 179 182 192 187 180 239 126 216 201 221 263 277 248 249 262
31 33 32 29 25 21 21 16 12 13 8 1 355 348 341 335 332 328 326 325 317 313 308 306 310 333 295 240 234 190 181 178 190 206 211 219 156 201 151 324 219 262 316 323 273 225 207
30 29 26 24 20 16 14 12 11 8 6 2 357 352 343 338 332 326 325 323 312 305 296 286 297 321 252 251 232 199 194 195 213 223 244 295 199 155 212 303 305 298 90 349 289 138 194
25 22 20 18 15 12 11 8 7 4 1 358 355 352 347 340 331 325 324 320 308 286 271 241 115 124 269 295 206 213 208 212 215 224 236 238 103 206 349 38 346 346 253 218 283 211 131
21 18 16 14 12 10 7 6 3 2 359 355 351 348 346 341 333 325 325 324 280 244 158 120 290 339 273 241 228 200 213 221 263 290 305 126 152 259 69 74 260 287 319 313 256 266 205
18 15 13 11 8 6 4 2 0 357 355 351 349 346 343 342 334 326 327 299 28 17 207 207 198 245 292 336 311 214 196 178 226 327 227 71 81 244 258 208 237 270 258 279 282 253 161
14 13 10 7 5 2 360 359 357 354 352 348 344 342 340 339 331 319 327 42 73 12 302 239 239 257 265 327 307 294 163 159 149 221 347 24 248 233 242 258 229 201 242 267 289 38 141
11 9 7 5 2 359 357 355 353 351 350 346 341 339 338 339 329 344 311 250 330 328 191 289 211 218 189 157 207 256 149 172 170 203 203 182 244 321 321 323 328 202 185 261 229 341 2
6 5 4 3 0 357 355 352 350 349 346 343 339 335 335 340 16 330 281 327 334 164 42 271 229 260 151 148 274 221 178 142 222 223 203 234 314 105 328 305 322 325 237 237 194 58 286
2 1 360 359 358 356 352 350 349 346 344 341 337 333 329 331 303 266 316 330 12 85 342 161 209 149 165 155 233 245 165 81 194 216 117 249 302 335 316 251 19 260 315 283 127 112 104
359 358 357 356 355 354 351 349 348 345 342 339 332 330 322 320 290 266 330 339 63 45 255 309 159 166 129 167 251 64 136 66 158 208 289 252 269 195 229 262 195 260 213 45 45 83 10
356 356 355 355 354 353 351 349 347 343 342 337 330 324 307 279 243 274 330 32 49 156 308 310 211 152 166 170 202 166 136 149 177 118 289 307 280 240 197 300 14 76 54 338 346 7 225
356 354 354 353 353 352 350 349 347 344 342 338 329 320 293 260 236 255 44 57 194 244 263 347 322 86 161 153 254 209 174 225 246 135 112 202 316 204 164 174 217 346 154 157 219 212 250
354 353 353 352 352 350 351 349 348 345 342 339 332 319 279 274 212 196 79 105 211 207 297 330 356 97 239 188 169 144 222 236 212 166 183 165 263 282 218 177 128 304 251 206 139 59 76
351 351 350 351 351 351 350 349 350 347 343 342 333 325 272 238 161 138 82 228 237 238 337 2 75 35 146 198 155 160 189 234 232 185 161 220 302 224 278 113 249 158 175 297 3 173 254
352 348 347 348 348 349 350 349 351 350 344 349 345 6 329 150 139 54 169 231 265 256 349 12 353 297 232 190 201 181 196 272 147 204 171 155 161 258 31 181 238 323 273 70 130 124 186
353 348 344 345 346 348 349 350 352 354 348 355 349 16 71 155 60 45 173 202 255 281 25 293 211 215 218 197 200 181 191 174 325 183 139 201 159 237 242 255 274 206 151 131 111 277 169
352 346 345 344 346 348 350 350 352 356 356 322 18 268 129 326 135 283 284 283 242 264 245 224 255 214 275 193 152 177 277 122 333 23 329 185 9 40 347 357 4 130 149 125 106 78 197
351 349 350 345 346 349 351 351 352 356 351 158 64 24 332 55 99 122 11 292 274 269 256 199 239 208 170 197 304 174 176 12 0 42 47 79 120 151 183 216 178 269 306 180 130 117 190
348 351 348 347 347 349 351 352 353 359 359 349 28 327 188 268 304 11 124 306 291 294 260 262 294 224 187 198 159 181 209 336 39 341 49 90 116 197 255 252 191 239 244 207 164 172 152
349 348 351 350 350 350 353 356 356 1 6 22 41 31 350 290 318 352 75 260 278 290 235 264 218 265 195 184 186 188 142 169 192 1 83 356 199 122 302 261 232 214 172 115 66 63 121
349 348 348 350 352 352 353 356 359 4 14 21 358 351 107 306 357 47 224 310 282 321 261 236 263 120 104 182 175 173 181 174 164 152 187 100 126 74 271 351 348 333 349 109 96 22 140
345 347 348 348 350 353 353 355 360 6 11 346 323 339 49 276 296 217 303 312 277 287 249 324 23 80 318 93 88 58 48 355 198 200 164 161 133 133 217 29 231 284 72 110 99 59 49
347 346 346 346 348 348 351 352 356 358 358 346 286 261 100 284 239 290 292 261 297 302 333 297 326 303 319 50 62 27 345 6 321 297 281 177 131 184 167 180 244 155 200 199 122 36 354
347 349 348 347 346 347 348 349 353 354 355 357 309 259 155 103 251 341 302 292 302 322 334 303 316 312 64 81 80 138 203 221 292 326 83 78 130 150 144 161 195 228 85 352 140 106 161
343 345 346 346 345 344 343 346 349 351 352 349 266 287 255 221 265 202 225 272 303 348 259 307 330 346 35 80 96 156 230 213 231 220 306 331 8 185 150 118 297 328 309 322 161 198 171
339 341 347 347 344 342 340 341 343 346 352 355 296 68 360 252 275 223 237 241 340 108 151 294 9 336 21 61 123 206 174 236 358 255 213 188 135 50 89 92 129 358 17 110 200 185 170
338 337 340 342 346 345 339 335 336 340 343 347 298 248 310 207 254 272 260 255 246 231 119 310 208 247 217 81 232 119 247 36 125 272 343 2 177 145 115 174 228 318 107 144 133 132 181